Location: Newark
(52.3500°N, 175.9667°E)
Time: 08:43:09
(UTC+00:00)

ISS - Visible Passes

Search period start: 06 March 2021 00:00
Search period end: 16 March 2021 00:00
Orbit: 417 x 422 km, 51.6° (Epoch: 05 March)

Date Brightness Start Highest point End Pass type
(mag) Time Alt. Az. Time Alt. Az. Time Alt. Az.
06 Mar -0.6 15:35:05 13° E 15:35:05 13° E 15:35:31 10° E visible
06 Mar -3.7 17:08:02 43° WSW 17:08:53 61° SSW 17:12:13 10° ESE visible
07 Mar -2.7 16:22:27 41° ESE 16:22:27 41° ESE 16:24:47 10° ESE visible
07 Mar -2.6 17:55:25 12° W 17:57:57 28° SSW 18:00:54 10° SSE visible
08 Mar -0.7 15:36:56 13° E 15:36:56 13° E 15:37:20 10° E visible
08 Mar -3.1 17:09:54 33° SW 17:10:35 38° SSW 17:13:44 10° SE visible
09 Mar -2.3 16:24:28 30° SE 16:24:28 30° SE 16:26:27 10° SE visible
09 Mar -1.8 17:57:26 10° WSW 17:59:26 15° SW 18:01:27 10° S visible
10 Mar -2.3 17:12:07 21° SW 17:12:09 21° SW 17:14:45 10° SSE visible
11 Mar -1.4 16:26:56 15° SSE 16:26:56 15° SSE 16:27:45 10° SSE visible
